Overview Statistics Trail Chart Weather Telemetry Raw packets
 

This is the latest recevied weather packets stored in our database for station/object 4S6DRJ-13. If no packets are shown the sender has not sent any weather packets the latest 10 day(s).

<< 126 127 128 129 130 131 132 >>
Time Temp. Humidity Pressure Rain* Wind** Luminosity Snow
1788269246 28.89° C 80% 1009.6 hPa 0 mm 0.45 m/s, 267° 0 W/m² -
1788269185 28.89° C 80% 1009.4 hPa 0 mm 1.34 m/s, 225° 0 W/m² -
1788269124 28.89° C 80% 1009.5 hPa 0 mm 0 m/s 0 W/m² -
1788269063 28.89° C 80% 1009.5 hPa 0 mm 1.34 m/s, 240° 0 W/m² -
1788269003 28.89° C 80% 1009.3 hPa 0 mm 0.89 m/s, 230° 0 W/m² -
1788268952 28.89° C 80% 1009.5 hPa 0 mm 1.79 m/s, 236° 0 W/m² -
1788268880 28.89° C 81% 1009.3 hPa 0 mm 0.89 m/s, 156° 0 W/m² -
1788268819 28.89° C 80% 1009.4 hPa 0 mm 0.89 m/s, 236° 0 W/m² -
1788268758 28.89° C 80% 1009.4 hPa 0 mm 1.79 m/s, 232° 0 W/m² -
1788268697 28.89° C 80% 1009.4 hPa 0 mm 1.79 m/s, 256° 0 W/m² -
1788268636 28.89° C 80% 1009.6 hPa 0 mm 1.34 m/s, 319° 0 W/m² -
1788268575 28.89° C 80% 1009.4 hPa 0 mm 0.89 m/s, 199° 0 W/m² -
1788268514 28.89° C 80% 1009.6 hPa 0 mm 0.89 m/s, 233° 0 W/m² -
1788268453 28.89° C 80% 1009.4 hPa 0 mm 0.89 m/s, 248° 0 W/m² -
1788268392 28.89° C 80% 1009.4 hPa 0 mm 1.79 m/s, 243° 0 W/m² -
1788268332 28.89° C 80% 1009.2 hPa 0 mm 0.89 m/s, 175° 0 W/m² -
1788268270 28.89° C 80% 1009.2 hPa 0 mm 2.24 m/s, 156° 0 W/m² -
1788268209 28.89° C 80% 1009.3 hPa 0 mm 1.79 m/s, 220° 0 W/m² -
1788268161 28.89° C 80% 1009.3 hPa 0 mm 1.79 m/s, 194° 0 W/m² -
1788268088 28.89° C 80% 1009.4 hPa 0 mm 0.45 m/s, 85° 0 W/m² -
1788268026 28.89° C 80% 1009.3 hPa 0 mm 0.89 m/s, 179° 0 W/m² -
1788267965 28.89° C 80% 1009.4 hPa 0 mm 2.68 m/s, 277° 0 W/m² -
1788267904 28.89° C 80% 1009.2 hPa 0 mm 1.34 m/s, 270° 0 W/m² -
1788267843 28.89° C 80% 1009.1 hPa 0 mm 1.79 m/s, 69° 0 W/m² -
1788267782 28.89° C 80% 1009.1 hPa 0 mm 0.89 m/s, 278° 0 W/m² -

* Rain latest hour (hover to see other rain measurements)
** Current wind speed in m/s (hover to see current wind gust speed)